Weather in Stulovo

Russia / Kirov Oblast     58°43′14″N   50°08′19″E
temp.,
°C
wind,
m/s
gust,
m/s
humid.,
%
clouds,
%
prec.,
mm/h
press.,
hPa
HPBL,
m
14 april, wed
wed1400:00+7sw3897100 0.0 1029248
03:00+5s2699100 0.0 1029163
06:00+3ssw3610098 0.0 1028134
09:00+9ssw3677100 0.0 1028261
12:00+13ssw477152 0.0 1026413
15:00+13s47766 0.0 1025360
18:00+8s310895 0.0 1024246
21:00+6s3129423 0.0 1024205
15 april, thu
thu1500:00+5ssw39945 0.0 1023156
03:00+5ssw29965 0.0 1021144
06:00+6ssw399791 0.0 1020201
09:00+11wsw358321 0.0 1020360
12:00+15wnw23635 0.0 1020885
15:00+9n687699 0.0 1022604
18:00+5nne51183100 0.0 1024598
21:00+5nne41079100 0.1 1025952
16 april, fri
fri1600:00+3nne41163100 0.0 1026681
03:00+1nne310770 0.0 1028335
06:00+1nne39750 0.0 1029361
09:00+5ne35500 0.0 1030985
12:00+7nne34395 0.0 10291340
15:00+8nne34365 0.0 10291420
18:00+6nne22505 0.0 102822
21:00+3nnw22635 0.0 102923
17 april, sat
sat1700:00+1nw22695 0.0 102920
03:000nw28775 0.0 1029153
06:00+2nnw39806 0.0 1029332
09:00+5nnw476484 0.0 10291273
12:00+6nw465368 0.0 10291434
15:00+9nnw574276 0.0 10281860
18:00+7nnw495311 0.0 1028692
21:00+3nnw4107053 0.0 1030427
18 april, sun
sun1800:00+2nw310795 0.0 1030380
03:000nw28885 0.0 1031213
06:00+2nw288380 0.0 1031277
09:00+5nnw4670100 0.0 10311076
12:00+6nnw4664100 0.1 10311415
15:00+6nnw355881 0.1 10321184
18:00+5n266977 0.2 1032376
21:00+2ene239344 0.2 103453